346  
ASUS42 KFFC 140810  
RWRGA  
WEATHER ROUNDUP FOR GEORGIA  
NATIONAL WEATHER SERVICE PEACHTREE CITY GA  
400 AM EDT FRI AUG 14 2020  
 
NOTE: "FAIR" INDICATES FEW OR NO CLOUDS BELOW 12,000 FEET WITH NO  
SIGNIFICANT WEATHER AND/OR S TO VISIBILITY
.  
 
* = USE WITH CAUTION. THE STATIONS MARKED WITH AN ASTERISK MAY NOT  
REPORT WEATHER SUCH AS PRECIPITATION, FOG, OR THUNDER AND ARE NOT  
QUALITY CONTROLLED BY NWS.  
 
THE REMARK "TC" DENOTES TEMPERATURE READING IN DEGREES CELSIUS.  
 
GAZ001>058-140900-  
NORTH GEORGIA  
 
CITY SKY/WX TMP DP RH WIND PRES REMARKS
 
ATLANTA MOCLDY 73 69 87 NE9 30.00R  
ATHENS MOCLDY 73 70 90 CALM 29.99F  
CHAMBLEE MOCLDY 71 71 100 E3 30.01R  
PEACHTREE CITY PTCLDY 72 71 97 CALM 29.99R  
ROME LGT RAIN 74 72 93 E3 29.97F  
WEST ATLANTA MOCLDY 73 71 93 CALM 30.00R  
GAINESVILLE MOCLDY 70 68 93 E3 30.03F  
CARTERSVILLE MOCLDY 74 71 91 CALM 30.00S  
 
 
CITY SKY/WX TMP DP RH WIND PRES REMARKS
 
DALTON* RAIN 73 70 88 CALM 30.00F  
LAWRENCEVILLE* MOCLDY 71 71 100 CALM 30.01S  
MARIETTA MOCLDY 73 71 96 CALM 30.00R  
KENNESAW* CLOUDY 74 72 93 E5 30.01F  
CANTON* CLOUDY 73 72 94 CALM 30.03S  
BLAIRSVILLE* CLOUDY 70 67 89 SE5 30.06F  

 
 
GAZ059>098-102>109-140900-  
CENTRAL GEORGIA  
 
CITY SKY/WX TMP DP RH WIND PRES REMARKS
 
AUGUSTA-BUSH CLOUDY 74 72 93 S5 29.96S  
AUGUSTA-DANIEL CLOUDY 78 71 79 N3 29.97F  
COLUMBUS PTCLDY 78 73 84 NE3 29.96F  
MACON PTCLDY 74 72 93 CALM 29.96F  
ROBINS AFB MOCLDY 74 74 100 S3 29.95F  
 
 
CITY SKY/WX TMP DP RH WIND PRES REMARKS
 
LAGRANGE* MOCLDY 73 73 97 CALM 29.98F  
SYLVANIA* MOCLDY 74 73 96 CALM 29.98F FOG  
MILLEDGEVILLE* PTCLDY 73 73 100 CALM 29.97F  

 
 
GAZ099>101-110>166-140900-  
SOUTH GEORGIA  
 
CITY SKY/WX TMP DP RH WIND PRES REMARKS
 
SAVANNAH PTCLDY 78 75 90 SW5 29.97S  
VALDOSTA CLEAR 74 72 93 CALM 29.98S  
ALMA CLEAR 75 72 90 S3 29.97F  
ST SIMONS PTCLDY 79 75 87 SW12 29.98R  
ALBANY PTCLDY 76 75 97 CALM 29.98F  
HUNTER AFB PTCLDY 79 75 89 VRB7 29.97S  
MOODY AFB CLEAR 75 73 93 CALM 29.97F  
BRUNSWICK PTCLDY 75 73 95 SW6 29.98F  
 
 
CITY SKY/WX TMP DP RH WIND PRES REMARKS
 
BAINBRIDGE* MOCLDY 76 75 96 S6 29.98S  
MOULTRIE* PTCLDY 73 73 100 CALM 29.99F  
VIDALIA* MOCLDY 75 72 88 CALM 29.98S  
WAYCROSS* CLEAR 76 71 84 SW3 29.98S  
DOUGLAS* CLEAR 74 73 98 CALM 29.99F  

 
 
 
CLICK HERE TO GO TO PREVIOUS BULLETINS.

The Nexlab GA Page Main Text Page